User: anonymous   Login
Location: Unspecified
(0.0000°N, 0.0000°E)
Time: 23:17:40
(UTC+00:00)
Language:

STARLINK-32316 - Orbit

View from above orbital plane
View from above orbital plane
View from above satellite
View from above satellite

Ground track
Ground track

The orbit is defined by the following mean orbital elements,

1 61860U          26145.34662520 +.00000000 +00000-0 +16554-3 0 00004
2 61860  43.0006 161.4085 0001179 283.9518  76.1202 15.27582995    06
Epoch (UTC): 25 May 2026 08:19:08
Eccentricity: 0.0001179
inclination: 43.0006°
perigee height: 482 km
apogee height: 484 km
right ascension of ascending node: 161.4085°
argument of perigee: 283.9518°
revolutions per day: 15.27582995
mean anomaly at epoch: 76.1202°

The dashed part of the orbit path shows where the satellite is in the earth's shadow,  

DLR